Weather History for Fryeburg, ME

Change the Weather History Date:

Sunday, October 7, 2012

  Actual Average Record
Temperature  
Mean Temperature 48 °F -  
Max Temperature 55 °F 61 °F 73 °F (1997)
Min Temperature 42 °F 34 °F 23 °F (2003)
Degree Days  
Heating Degree Days 16    
Moisture  
Dew Point 38 °F    
Average Humidity 67    
Maximum Humidity 93    
Minimum Humidity 53    
Precipitation  
Precipitation 0.15 in - - ()
Sea Level Pressure  
Sea Level Pressure 30.00 in    
Wind  
Wind Speed 4 mph (West)    
Max Wind Speed 8 mph    
Max Gust Speed -    
Visibility 10 miles    
Events Rain    
Averages and records for this station are not official NWS values.
T = Trace of Precipitation, MM = Missing Value Source: NWS Daily Summary

Daily Weather History Graph

Daily Weather History Graph

Search for Another Location

Airport:

Trip Planner

Search our weather history database for the weather conditions in past years. The results will help you decide how hot, cold, wet, or windy it might be!

Date:

Astronomy

Oct. 07, 2012 Rise Set
Actual Time 6:49 AM EDT 6:13 PM EDT
Civil Twilight 6:20 AM EDT 6:41 PM EDT
Nautical Twilight 5:46 AM EDT 7:15 PM EDT
Astronomical Twilight 5:13 AM EDT 7:48 PM EDT
Moon 11:13 PM EDT (10/7) 1:32 PM EDT (10/7)
Length of Visible Light 12h 21m
Length of Day
11h 23m
Waning Gibbous, 56% of the Moon is Illuminated
Oct 7
Waning Gibbous
Oct 8
Last Quarter
Oct 15
New
Oct 21
First Quarter
Oct 29
Full

Hourly Weather History & Observations

Time (EDT) Temp. Windchill Dew Point Humidity Pressure Visibility Wind Dir Wind Speed Gust Speed Precip Events Conditions
12:54 AM 46.0 °F 43.1 °F 37.9 °F 73% 29.90 in 10.0 mi WNW 5.8 mph - N/A   Clear
1:54 AM 48.9 °F - 35.1 °F 59% 29.92 in 10.0 mi Variable 4.6 mph - N/A   Clear
2:54 AM 48.9 °F - 34.0 °F 56% 29.93 in 10.0 mi WNW 6.9 mph - N/A   Clear
3:54 AM 46.9 °F - 35.1 °F 63% 29.94 in 10.0 mi West 4.6 mph - N/A   Clear
4:54 AM 42.1 °F 38.4 °F 36.0 °F 79% 29.96 in 10.0 mi West 5.8 mph - N/A   Clear
5:54 AM 42.1 °F 38.4 °F 35.1 °F 76% 29.98 in 10.0 mi South 5.8 mph - N/A   Clear
6:54 AM 46.0 °F 42.5 °F 35.1 °F 66% 29.98 in 10.0 mi WNW 6.9 mph - 0.00 in   Clear
7:54 AM 46.0 °F - 37.9 °F 73% 30.02 in 10.0 mi Calm Calm - N/A   Clear
8:54 AM 50.0 °F - 37.9 °F 63% 30.02 in 10.0 mi NNE 3.5 mph - N/A   Partly Cloudy
9:54 AM 53.1 °F - 37.0 °F 55% 30.03 in 10.0 mi East 8.1 mph - N/A   Clear
10:54 AM 53.1 °F - 37.9 °F 57% 30.04 in 10.0 mi Variable 6.9 mph - N/A   Clear
11:54 AM 54.0 °F - 39.0 °F 57% 30.04 in 10.0 mi NE 3.5 mph - N/A   Clear
12:54 PM 54.0 °F - 37.9 °F 55% 30.04 in 10.0 mi Calm Calm - N/A   Mostly Cloudy
1:54 PM 55.0 °F - 37.9 °F 53% 30.03 in 10.0 mi SW 5.8 mph - N/A   Mostly Cloudy
2:54 PM 54.0 °F - 37.0 °F 53% 30.02 in 10.0 mi SSW 5.8 mph - N/A   Clear
3:54 PM 54.0 °F - 37.9 °F 55% 30.02 in 10.0 mi Calm Calm - N/A   Clear
4:54 PM 54.0 °F - 37.9 °F 55% 30.01 in 10.0 mi SW 4.6 mph - N/A   Clear
5:54 PM 51.1 °F - 41.0 °F 68% 30.02 in 10.0 mi Calm Calm - N/A   Clear
6:54 PM 50.0 °F - 42.1 °F 74% 30.02 in 10.0 mi Calm Calm - N/A   Partly Cloudy
8:54 PM 46.9 °F - 43.0 °F 86% 30.02 in 10.0 mi Calm Calm - N/A   Overcast
9:54 PM 46.9 °F - 44.1 °F 90% 30.04 in 10.0 mi Calm Calm - 0.00 in Rain Light Rain
10:54 PM 46.9 °F - 45.0 °F 93% 30.06 in 6.0 mi Calm Calm - 0.05 in Rain Rain
11:54 PM 45.0 °F 43.5 °F 43.0 °F 93% 30.04 in 8.0 mi NNW 3.5 mph - 0.10 in Rain Light Rain